Weather in Troianiv

Ukraine / Zhytomyr Region     50°06′47″N   28°31′23″E
temp.,
°C
wind,
m/s
gust,
m/s
humid.,
%
clouds,
%
prec.,
mm/h
press.,
hPa
HPBL,
m
8 may, sat
sat800:00+10sw3494100 0.4 1007103
03:00+9wnw4895100 1.8 1007262
06:00+8wnw61196100 0.1 1007578
09:00+6nw51193100 2.1 1011772
12:00+6wnw81290100 0.8 10131072
15:00+5wnw7108699 1.1 1016890
18:00+7nw7117231 0.1 10171243
21:00+4wnw48875 0.2 1019148
9 may, sun
sun900:00+2wnw36935 0.0 102199
03:00+1wnw36940 0.0 1022108
06:00+1w37930 0.0 1024135
09:00+7wnw46734 0.0 1025559
12:00+11wnw45515 0.0 10251680
15:00+13wnw45425 0.0 10252090
18:00+13wnw2344100 0.0 10251939
21:00+8ese11616 0.0 102710
10 may, mon
mon1000:00+6sse33665 0.0 102837
03:00+5sse34675 0.0 102860
06:00+5sse34715 0.0 102860
09:00+11se57595 0.0 1028410
12:00+15se56485 0.0 10281478
15:00+16sse56475 0.0 10261587
18:00+16se45545 0.0 10261404
21:00+10ese47765 0.0 1026114
11 may, tue
tue1100:00+7se410811 0.0 1027178
03:00+6se47767 0.0 1027110
06:00+5se36785 0.0 1026100
09:00+12ese46600 0.0 1025456
12:00+16e46480 0.0 10241110
15:00+17e45450 0.0 10221226
18:00+17e45550 0.0 1021981
21:00+11ene48773 0.0 1021140
12 may, wed
wed1200:00+10ese4119598 0.0 1020303
03:00+7ese39962 0.0 1020234
06:00+6ese369522 0.0 1019120
09:00+11e587222 0.0 1017744
12:00+14e675639 0.0 10151584
15:00+14e786081 0.1 10141594
18:00+13e566696 0.1 10131195
21:00+8e489015 0.5 1013164